Regional Weather Roundup
Issued by NWS Sioux Falls, SD

Home | Current Version | Previous Version | Text Only | Print | Product List | Glossary Off
Versions: 1 2 3 4 5 6 7 8 9 10 11 12 13 14 15 16 17 18 19 20 21 22 23 24 25 26 27 28 29 30 31 32 33 34 35 36 37 38 39 40 41 42 43 44 45 46 47 48 49 50

305
ASUS43 KFSD 201310
RWRFSD

WEATHER ROUNDUP FOR SE SOUTH DAKOTA/SW MINNESOTA/NW IOWA
NATIONAL WEATHER SERVICE SIOUX FALLS SD
700 AM CST FRI JAN 20 2017

NOTE: "FAIR" INDICATES FEW OR NO CLOUDS BELOW 12,000 FEET WITH NO
SIGNIFICANT WEATHER AND OR OBSTRUCTIONS TO VISIBILITY.


SDZ038>040-050-052>070-201400-
SOUTHEAST SOUTH DAKOTA

CITY           SKY/WX    TMP DP  RH WIND       PRES   REMARKS
BROOKINGS      CLOUDY    36  35  96 SE10      29.49S
CHAMBERLAIN    CLEAR     32  32 100 SE3       29.38F
HURON          CLOUDY    36  36 100 SE9       29.43S
MADISON        CLOUDY    36  36 100 SE13        N/A
MITCHELL       CLOUDY    38  37  97 SE10      29.44S
SIOUX FALLS    FOG       37  37 100 SE12      29.50F VSB 3/4
WINNER         FAIR      27  24  89 SW7       29.38R WCI  19
YANKTON        CLOUDY    36  34  93 SE9       29.48R
$$

MNZ071-072-080-081-089-090-097-098-201400-
SOUTHWEST MINNESOTA

CITY           SKY/WX    TMP DP  RH WIND       PRES   REMARKS
FAIRMONT       CLOUDY    33  33 100 S7        29.58F FOG     WCI  27
JACKSON        FOG       32  32 100 SE7       29.56F VSB 1   WCI  26
LUVERNE        CLOUDY    36  34  93 SE6       29.53F FOG
MARSHALL       CLOUDY    34  34 100 SE9       29.55S FOG     WCI  27
MONTEVIDEO     CLOUDY    34  34 100 S8        29.57F FOG     WCI  27
PIPESTONE      CLOUDY    36  36 100 SE8       29.51S FOG
REDWOOD FALLS  CLOUDY    34  32  92 SE7       29.57F FOG     WCI  28
TRACY          CLOUDY    35  35 100 SE6       29.55F FOG     WCI  30
WINDOM         FOG       34  34 100 SE5       29.56F VSB 1   WCI  30
WORTHINGTON    FOG       33  33 100 SE8       29.54F VSB 1/2 WCI  26
$$

IAZ001>003-012>014-020>022-031-032-NEZ013-014-SDZ071-201400-
NORTHWEST IOWA

CITY           SKY/WX    TMP DP  RH WIND       PRES   REMARKS
CHEROKEE       CLOUDY    36  36 100 CALM      29.55F FOG
DENISON        CLOUDY    37  37 100 E3        29.53F FOG
ESTHERVILLE    FOG       33  33 100 S3        29.56F VSB 1
LE MARS        CLOUDY    37  37 100 SE8       29.53F FOG
ORANGE CITY    CLOUDY    37  37 100 SE5       29.53F FOG
SHELDON        CLOUDY    36  36 100 SE8       29.53S FOG
SIOUX CITY     CLOUDY    38  37  97 E9        29.52F FOG
SPENCER        FOG       34  34 100 SE7       29.56S VSB 3/4 WCI  28
STORM LAKE     FOG       34  34 100 SE8       29.56S VSB<1/4 WCI  27
$$

ABBREVIATIONS USED IN REMARKS
   TC - TEMPERATURE IN CELSIUS
  WCI - WIND CHILL INDEX
   HX - HEAT INDEX
  VSB - VISIBILITY





USA.gov is the U.S. government's official web portal to all federal, state and local government web resources and services.